CZ-3C DEB, 40207

Orbit data source: Space-Track

CZ-3C DEB, 40207 is space debris in HEO originally from a launch on Fri, 24 Feb 2012 UTC launched from the Xichang Space Center, China (XSC). Debris objects in space refer to the collection of defunct objects orbiting the Earth. Examples of debris include non-operational satellites, rocket bodies, and fragments generated from explosions, collisions, or faulty payload assembly.

Loading next visibility...
Identifier
40207, 2012-008S
Orbit
HEO
Country
Flag of CNCN / PRC
Related business
Manufacturer
CALT
Mission
Spacecraft
Bus & Motor
Unknown
Mass
Unknown
Launch date (UTC)
2012-02-24 (14 years ago)
Launch vehicle
Unknown
Launch site
Xichang Space Center, China (XSC)
Object type
Payload
Rocket body
Debris
Shape & HBR
Unknown shape, 0.3 m
Radar Cross Section
Medium (>0.1 m² and <1 m²)

Expand to show TLE details & history
Last TLE update: 2 days ago

TLE from 2 days ago
0 CZ-3C DEB
1 40207U 12008S   25306.80791173  .00001697  00000-0  96987-2 0  9990
2 40207  19.5951  32.3109 7224977 231.1064  39.1654  2.23863634 90349
Epoch: 2025-11-02T19:23Z
TLE epoch observation values (Epoch: 2025-11-02T19:23:23.573Z)
Latitude
0.00004°
Longitude
59.0939°
Altitude
15,245.373 km
Speed
4.552 km/s
True Right ascension
02h 09m 02s
True Declination
0° 00' 00"
Sunlit
Object was in full shadow at epoch
Visualization orbit readout
Latitude
Unknown
Longitude
Unknown
Altitude
Unknown
Speed
Unknown
Apparent Right ascension
Unknown
Apparent Declination
Unknown
Sunlit
N/A
Visualization observer readout
Local Sidereal Time
11:44:35
Azimuth
Unknown
Elevation
Unknown
Doppler factor
Unknown
Orbital elements
Apogee altitude
36,147.487 km
Perigee altitude
472.937 km
Semi-major axis
24,688.349 km
Eccentricity
0.7225
Inclination
19.5951°
RAAN
32.3109°
Arg. of periapsis
231.1064°
True anomaly
128.81128°
Mean anomaly
39.1654°
Eccentric anomaly
79.92285°
Mean motion
0.55951 °/min
Orbital period
643.42 mins
BSTAR
0.0096987
Loading maneuver chart data...
Computing Atmospheric mass density...
Loading historical data...
Loading historical data...
Loading historical data...
Loading historical data...
Loading historical data...
Loading historical data...
Loading historical data...

Documentation

Showing up to 5 results
|